カタログに戻る

METEOR 2-11

運用中気象PO
NORAD 15099·PAYLOAD·🇷🇺 Russia

打ち上げ Jul 5, 1984 から Plesetsk Cosmodrome

Loading…

次のパス (今後24時間)

TLE

最新Source: Space-Track

元期: Sep 14, 2026, 04:13 UTC

1 15099U 84072A   26257.17580135  .00000067  00000-0  45911-4 0  9994
2 15099  82.5336 328.2022 0012814 194.2566 165.8235 13.85307939132667

AllMySatでMETEOR 2-11をリアルタイム追跡

Download on the App Store